Year,Month,Day,Hour,Minute,Value (Times are PST for temperature in C)
2016,07,17,00,00,14.70
2016,07,17,00,01,14.70
2016,07,17,00,02,14.70
2016,07,17,00,03,14.60
2016,07,17,00,04,14.60
2016,07,17,00,05,14.60
2016,07,17,00,06,14.60
2016,07,17,00,07,14.50
2016,07,17,00,08,14.50
2016,07,17,00,09,14.50
2016,07,17,00,10,14.50
2016,07,17,00,11,14.50
2016,07,17,00,12,14.50
2016,07,17,00,13,14.50
2016,07,17,00,14,14.50
2016,07,17,00,15,14.50
2016,07,17,00,16,14.50
2016,07,17,00,17,14.50
2016,07,17,00,18,14.50
2016,07,17,00,19,14.50
2016,07,17,00,20,14.50
2016,07,17,00,21,14.50
2016,07,17,00,22,14.50
2016,07,17,00,23,14.60
2016,07,17,00,24,14.60
2016,07,17,00,25,14.60
2016,07,17,00,26,14.60
2016,07,17,00,27,14.60
2016,07,17,00,28,14.60
2016,07,17,00,29,14.60
2016,07,17,00,30,14.60
2016,07,17,00,31,14.60
2016,07,17,00,32,14.60
2016,07,17,00,33,14.70
2016,07,17,00,34,14.70
2016,07,17,00,35,14.70
2016,07,17,00,36,14.70
2016,07,17,00,37,14.80
2016,07,17,00,38,14.80
2016,07,17,00,39,14.80
2016,07,17,00,40,14.80
2016,07,17,00,41,14.80
2016,07,17,00,42,14.80
2016,07,17,00,43,14.70
2016,07,17,00,44,14.70
2016,07,17,00,45,14.70
2016,07,17,00,46,14.60
2016,07,17,00,47,14.60
2016,07,17,00,48,14.50
2016,07,17,00,49,14.50
2016,07,17,00,50,14.40
2016,07,17,00,51,14.40
2016,07,17,00,52,14.40
2016,07,17,00,53,14.40
2016,07,17,00,54,14.50
2016,07,17,00,55,14.50
2016,07,17,00,56,14.60
2016,07,17,00,57,14.60
2016,07,17,00,58,14.70
2016,07,17,00,59,14.70
2016,07,17,01,00,14.70
2016,07,17,01,01,14.80
2016,07,17,01,02,14.80
2016,07,17,01,03,14.80
2016,07,17,01,04,14.90
2016,07,17,01,05,14.90
2016,07,17,01,06,14.90
2016,07,17,01,07,15.00
2016,07,17,01,08,15.00
2016,07,17,01,09,15.00
2016,07,17,01,10,15.00
2016,07,17,01,11,15.00
2016,07,17,01,12,15.00
2016,07,17,01,13,15.00
2016,07,17,01,14,15.10
2016,07,17,01,15,15.10
2016,07,17,01,16,15.10
2016,07,17,01,17,15.20
2016,07,17,01,18,15.20
2016,07,17,01,19,15.20
2016,07,17,01,20,15.20
2016,07,17,01,21,15.30
2016,07,17,01,22,15.30
2016,07,17,01,23,15.30
2016,07,17,01,24,15.30
2016,07,17,01,25,15.30
2016,07,17,01,26,15.30
2016,07,17,01,27,15.30
2016,07,17,01,28,15.30
2016,07,17,01,29,15.30
2016,07,17,01,30,15.30
2016,07,17,01,31,15.30
2016,07,17,01,32,15.40
2016,07,17,01,33,15.40
2016,07,17,01,34,15.40
2016,07,17,01,35,15.40
2016,07,17,01,36,15.40
2016,07,17,01,37,15.40
2016,07,17,01,38,15.40
2016,07,17,01,39,15.40
2016,07,17,01,40,15.50
2016,07,17,01,41,15.50
2016,07,17,01,42,15.50
2016,07,17,01,43,15.50
2016,07,17,01,44,15.50
2016,07,17,01,45,15.50
2016,07,17,01,46,15.60
2016,07,17,01,47,15.50
2016,07,17,01,48,15.50
2016,07,17,01,49,15.50
2016,07,17,01,50,15.40
2016,07,17,01,51,15.40
2016,07,17,01,52,15.40
2016,07,17,01,53,15.30
2016,07,17,01,54,15.30
2016,07,17,01,55,15.20
2016,07,17,01,56,15.20
2016,07,17,01,57,15.10
2016,07,17,01,58,15.10
2016,07,17,01,59,15.10
2016,07,17,02,00,15.00
2016,07,17,02,01,15.00
2016,07,17,02,02,14.90
2016,07,17,02,03,14.90
2016,07,17,02,04,14.90
2016,07,17,02,05,14.90
2016,07,17,02,06,14.90
2016,07,17,02,07,14.90
2016,07,17,02,08,14.80
2016,07,17,02,09,14.80
2016,07,17,02,10,14.80
2016,07,17,02,11,14.70
2016,07,17,02,12,14.70
2016,07,17,02,13,14.70
2016,07,17,02,14,14.70
2016,07,17,02,15,14.70
2016,07,17,02,16,14.70
2016,07,17,02,17,14.70
2016,07,17,02,18,14.70
2016,07,17,02,19,14.70
2016,07,17,02,20,14.70
2016,07,17,02,21,14.70
2016,07,17,02,22,14.70
2016,07,17,02,23,14.70
2016,07,17,02,24,14.70
2016,07,17,02,25,14.70
2016,07,17,02,26,14.70
2016,07,17,02,27,14.70
2016,07,17,02,28,14.70
2016,07,17,02,29,14.70
2016,07,17,02,30,14.70
2016,07,17,02,31,14.70
2016,07,17,02,32,14.70
2016,07,17,02,33,14.70
2016,07,17,02,34,14.70
2016,07,17,02,35,14.60
2016,07,17,02,36,14.60
2016,07,17,02,37,14.60
2016,07,17,02,38,14.60
2016,07,17,02,39,14.60
2016,07,17,02,40,14.60
2016,07,17,02,41,14.60
2016,07,17,02,42,14.60
2016,07,17,02,43,14.60
2016,07,17,02,44,14.60
2016,07,17,02,45,14.60
2016,07,17,02,46,14.60
2016,07,17,02,47,14.60
2016,07,17,02,48,14.60
2016,07,17,02,49,14.60
2016,07,17,02,50,14.60
2016,07,17,02,51,14.60
2016,07,17,02,52,14.60
2016,07,17,02,53,14.60
2016,07,17,02,54,14.60
2016,07,17,02,55,14.60
2016,07,17,02,56,14.60
2016,07,17,02,57,14.60
2016,07,17,02,58,14.70
2016,07,17,02,59,14.70
2016,07,17,03,00,14.70
2016,07,17,03,01,14.70
2016,07,17,03,02,14.70
2016,07,17,03,03,14.80
2016,07,17,03,04,14.80
2016,07,17,03,05,14.80
2016,07,17,03,06,14.90
2016,07,17,03,07,14.90
2016,07,17,03,08,14.90
2016,07,17,03,09,14.90
2016,07,17,03,10,15.00
2016,07,17,03,11,15.00
2016,07,17,03,12,15.10
2016,07,17,03,13,15.10
2016,07,17,03,14,15.10
2016,07,17,03,15,15.10
2016,07,17,03,16,15.20
2016,07,17,03,17,15.20
2016,07,17,03,18,15.20
2016,07,17,03,19,15.20
2016,07,17,03,20,15.30
2016,07,17,03,21,15.30
2016,07,17,03,22,15.30
2016,07,17,03,23,15.30
2016,07,17,03,24,15.40
2016,07,17,03,25,15.40
2016,07,17,03,26,15.40
2016,07,17,03,27,15.50
2016,07,17,03,28,15.50
2016,07,17,03,29,15.50
2016,07,17,03,30,15.60
2016,07,17,03,31,15.60
2016,07,17,03,32,15.60
2016,07,17,03,33,15.70
2016,07,17,03,34,15.70
2016,07,17,03,35,15.70
2016,07,17,03,36,15.70
2016,07,17,03,37,15.70
2016,07,17,03,38,15.70
2016,07,17,03,39,15.80
2016,07,17,03,40,15.80
2016,07,17,03,41,15.80
2016,07,17,03,42,15.80
2016,07,17,03,43,15.80
2016,07,17,03,44,15.80
2016,07,17,03,45,15.80
2016,07,17,03,46,15.80
2016,07,17,03,47,15.90
2016,07,17,03,48,15.90
2016,07,17,03,49,15.90
2016,07,17,03,50,15.90
2016,07,17,03,51,15.90
2016,07,17,03,52,15.90
2016,07,17,03,53,15.90
2016,07,17,03,54,15.90
2016,07,17,03,55,15.90
2016,07,17,03,56,15.90
2016,07,17,03,57,15.90
2016,07,17,03,58,15.90
2016,07,17,03,59,15.90
2016,07,17,04,00,15.90
2016,07,17,04,01,15.90
2016,07,17,04,02,15.90
2016,07,17,04,03,15.90
2016,07,17,04,04,15.90
2016,07,17,04,05,15.90
2016,07,17,04,06,15.90
2016,07,17,04,07,15.90
2016,07,17,04,08,15.90
2016,07,17,04,09,15.90
2016,07,17,04,10,15.90
2016,07,17,04,11,15.80
2016,07,17,04,12,15.80
2016,07,17,04,13,15.80
2016,07,17,04,14,15.80
2016,07,17,04,15,15.80
2016,07,17,04,16,15.80
2016,07,17,04,17,15.80
2016,07,17,04,18,15.80
2016,07,17,04,19,15.80
2016,07,17,04,20,15.80
2016,07,17,04,21,15.80
2016,07,17,04,22,15.80
2016,07,17,04,23,15.80
2016,07,17,04,24,15.80
2016,07,17,04,25,15.80
2016,07,17,04,26,15.80
2016,07,17,04,27,15.80
2016,07,17,04,28,15.80
2016,07,17,04,29,15.90
2016,07,17,04,30,15.80
2016,07,17,04,31,15.80
2016,07,17,04,32,15.80
2016,07,17,04,33,15.80
2016,07,17,04,34,15.80
2016,07,17,04,35,15.80
2016,07,17,04,36,15.80
2016,07,17,04,37,15.80
2016,07,17,04,38,15.80
2016,07,17,04,39,15.80
2016,07,17,04,40,15.80
2016,07,17,04,41,15.70
2016,07,17,04,42,15.70
2016,07,17,04,43,15.70
2016,07,17,04,44,15.70
2016,07,17,04,45,15.70
2016,07,17,04,46,15.70
2016,07,17,04,47,15.70
2016,07,17,04,48,15.70
2016,07,17,04,49,15.70
2016,07,17,04,50,15.70
2016,07,17,04,51,15.70
2016,07,17,04,52,15.70
2016,07,17,04,53,15.60
2016,07,17,04,54,15.60
2016,07,17,04,55,15.60
2016,07,17,04,56,15.60
2016,07,17,04,57,15.60
2016,07,17,04,58,15.60
2016,07,17,04,59,15.60
2016,07,17,05,00,15.60
2016,07,17,05,01,15.60
2016,07,17,05,02,15.60
2016,07,17,05,03,15.50
2016,07,17,05,04,15.50
2016,07,17,05,05,15.50
2016,07,17,05,06,15.50
2016,07,17,05,07,15.50
2016,07,17,05,08,15.40
2016,07,17,05,09,15.40
2016,07,17,05,10,15.40
2016,07,17,05,11,15.40
2016,07,17,05,12,15.40
2016,07,17,05,13,15.40
2016,07,17,05,14,15.40
2016,07,17,05,15,15.40
2016,07,17,05,16,15.40
2016,07,17,05,17,15.40
2016,07,17,05,18,15.40
2016,07,17,05,19,15.40
2016,07,17,05,20,15.40
2016,07,17,05,21,15.40
2016,07,17,05,22,15.40
2016,07,17,05,23,15.40
2016,07,17,05,24,15.30
2016,07,17,05,25,15.30
2016,07,17,05,26,15.30
2016,07,17,05,27,15.30
2016,07,17,05,28,15.30
2016,07,17,05,29,15.30
2016,07,17,05,30,15.30
2016,07,17,05,31,15.30
2016,07,17,05,32,15.30
2016,07,17,05,33,15.30
2016,07,17,05,34,15.30
2016,07,17,05,35,15.30
2016,07,17,05,36,15.30
2016,07,17,05,37,15.30
2016,07,17,05,38,15.30
2016,07,17,05,39,15.30
2016,07,17,05,40,15.30
2016,07,17,05,41,15.30
2016,07,17,05,42,15.30
2016,07,17,05,43,15.30
2016,07,17,05,44,15.30
2016,07,17,05,45,15.30
2016,07,17,05,46,15.30
2016,07,17,05,47,15.30
2016,07,17,05,48,15.30
2016,07,17,05,49,15.30
2016,07,17,05,50,15.30
2016,07,17,05,51,15.30
2016,07,17,05,52,15.30
2016,07,17,05,53,15.30
2016,07,17,05,54,15.30
2016,07,17,05,55,15.40
2016,07,17,05,56,15.40
2016,07,17,05,57,15.30
2016,07,17,05,58,15.30
2016,07,17,05,59,15.40
2016,07,17,06,00,15.40
2016,07,17,06,01,15.40
2016,07,17,06,02,15.40
2016,07,17,06,03,15.40
2016,07,17,06,04,15.40
2016,07,17,06,05,15.40
2016,07,17,06,06,15.40
2016,07,17,06,07,15.40
2016,07,17,06,08,15.40
2016,07,17,06,09,15.40
2016,07,17,06,10,15.40
2016,07,17,06,11,15.50
2016,07,17,06,12,15.50
2016,07,17,06,13,15.50
2016,07,17,06,14,15.50
2016,07,17,06,15,15.60
2016,07,17,06,16,15.60
2016,07,17,06,17,15.60
2016,07,17,06,18,15.60
2016,07,17,06,19,15.60
2016,07,17,06,20,15.60
2016,07,17,06,21,15.60
2016,07,17,06,22,15.60
2016,07,17,06,23,15.70
2016,07,17,06,24,15.70
2016,07,17,06,25,15.70
2016,07,17,06,26,15.70
2016,07,17,06,27,15.70
2016,07,17,06,28,15.70
2016,07,17,06,29,15.70
2016,07,17,06,30,15.70
2016,07,17,06,31,15.70
2016,07,17,06,32,15.70
2016,07,17,06,33,15.70
2016,07,17,06,34,15.70
2016,07,17,06,35,15.70
2016,07,17,06,36,15.70
2016,07,17,06,37,15.70
2016,07,17,06,38,15.70
2016,07,17,06,39,15.70
2016,07,17,06,40,15.70
2016,07,17,06,41,15.80
2016,07,17,06,42,15.80
2016,07,17,06,43,15.80
2016,07,17,06,44,15.80
2016,07,17,06,45,15.80
2016,07,17,06,46,15.80
2016,07,17,06,47,15.80
2016,07,17,06,48,15.80
2016,07,17,06,49,15.80
2016,07,17,06,50,15.80
2016,07,17,06,51,15.80
2016,07,17,06,52,15.90
2016,07,17,06,53,15.90
2016,07,17,06,54,15.90
2016,07,17,06,55,15.90
2016,07,17,06,56,15.90
2016,07,17,06,57,15.90
2016,07,17,06,58,15.90
2016,07,17,06,59,16.00
2016,07,17,07,00,16.00
2016,07,17,07,01,16.00
2016,07,17,07,02,16.00
2016,07,17,07,03,16.10
2016,07,17,07,04,16.10
2016,07,17,07,05,16.10
2016,07,17,07,06,16.10
2016,07,17,07,07,16.10
2016,07,17,07,08,16.10
2016,07,17,07,09,16.10
2016,07,17,07,10,16.10
2016,07,17,07,11,16.20
2016,07,17,07,12,16.20
2016,07,17,07,13,16.20
2016,07,17,07,14,16.20
2016,07,17,07,15,16.30
2016,07,17,07,16,16.30
2016,07,17,07,17,16.30
2016,07,17,07,18,16.30
2016,07,17,07,19,16.30
2016,07,17,07,20,16.30
2016,07,17,07,21,16.40
2016,07,17,07,22,16.40
2016,07,17,07,23,16.40
2016,07,17,07,24,16.50
2016,07,17,07,25,16.50
2016,07,17,07,26,16.50
2016,07,17,07,27,16.60
2016,07,17,07,28,16.60
2016,07,17,07,29,16.60
2016,07,17,07,30,16.60
2016,07,17,07,31,16.60
2016,07,17,07,32,16.70
2016,07,17,07,33,16.70
2016,07,17,07,34,16.60
2016,07,17,07,35,16.60
2016,07,17,07,36,16.60
2016,07,17,07,37,16.60
2016,07,17,07,38,16.60
2016,07,17,07,39,16.60
2016,07,17,07,40,16.60
2016,07,17,07,41,16.60
2016,07,17,07,42,16.60
2016,07,17,07,43,16.60
2016,07,17,07,44,16.60
2016,07,17,07,45,16.60
2016,07,17,07,46,16.60
2016,07,17,07,47,16.60
2016,07,17,07,48,16.60
2016,07,17,07,49,16.60
2016,07,17,07,50,16.60
2016,07,17,07,51,16.60
2016,07,17,07,52,16.60
2016,07,17,07,53,16.60
2016,07,17,07,54,16.60
2016,07,17,07,55,16.60
2016,07,17,07,56,16.60
2016,07,17,07,57,16.60
2016,07,17,07,58,16.60
2016,07,17,07,59,16.60
2016,07,17,08,00,16.60
2016,07,17,08,01,16.60
2016,07,17,08,02,16.60
2016,07,17,08,03,16.60
2016,07,17,08,04,16.60
2016,07,17,08,05,16.60
2016,07,17,08,06,16.60
2016,07,17,08,07,16.60
2016,07,17,08,08,16.60
2016,07,17,08,09,16.60
2016,07,17,08,10,16.60
2016,07,17,08,11,16.60
2016,07,17,08,12,16.70
2016,07,17,08,13,16.70
2016,07,17,08,14,16.70
2016,07,17,08,15,16.70
2016,07,17,08,16,16.70
2016,07,17,08,17,16.70
2016,07,17,08,18,16.70
2016,07,17,08,19,16.80
2016,07,17,08,20,16.80
2016,07,17,08,21,16.80
2016,07,17,08,22,16.80
2016,07,17,08,23,16.80
2016,07,17,08,24,16.80
2016,07,17,08,25,16.80
2016,07,17,08,26,16.80
2016,07,17,08,27,16.80
2016,07,17,08,28,16.80
2016,07,17,08,29,16.90
2016,07,17,08,30,16.90
2016,07,17,08,31,16.90
2016,07,17,08,32,16.90
2016,07,17,08,33,16.90
2016,07,17,08,34,17.00
2016,07,17,08,35,17.00
2016,07,17,08,36,17.10
2016,07,17,08,37,17.10
2016,07,17,08,38,17.10
2016,07,17,08,39,17.20
2016,07,17,08,40,17.20
2016,07,17,08,41,17.20
2016,07,17,08,42,17.20
2016,07,17,08,43,17.20
2016,07,17,08,44,17.20
2016,07,17,08,45,17.30
2016,07,17,08,46,17.30
2016,07,17,08,47,17.30
2016,07,17,08,48,17.30
2016,07,17,08,49,17.30
2016,07,17,08,50,17.40
2016,07,17,08,51,17.40
2016,07,17,08,52,17.40
2016,07,17,08,53,17.40
2016,07,17,08,54,17.40
2016,07,17,08,55,17.40
2016,07,17,08,56,17.40
2016,07,17,08,57,17.50
2016,07,17,08,58,17.50
2016,07,17,08,59,17.50
2016,07,17,09,00,17.40
2016,07,17,09,01,17.50
2016,07,17,09,02,17.50
2016,07,17,09,03,17.50
2016,07,17,09,04,17.60
2016,07,17,09,05,17.60
2016,07,17,09,06,17.60
2016,07,17,09,07,17.60
2016,07,17,09,08,17.50
2016,07,17,09,09,17.50
2016,07,17,09,10,17.50
2016,07,17,09,11,17.40
2016,07,17,09,12,17.40
2016,07,17,09,13,17.40
2016,07,17,09,14,17.40
2016,07,17,09,15,17.40
2016,07,17,09,16,17.40
2016,07,17,09,17,17.40
2016,07,17,09,18,17.40
2016,07,17,09,19,17.40
2016,07,17,09,20,17.40
2016,07,17,09,21,17.40
2016,07,17,09,22,17.40
2016,07,17,09,23,17.40
2016,07,17,09,24,17.40
2016,07,17,09,25,17.30
2016,07,17,09,26,17.30
2016,07,17,09,27,17.30
2016,07,17,09,28,17.40
2016,07,17,09,29,17.40
2016,07,17,09,30,17.40
2016,07,17,09,31,17.40
2016,07,17,09,32,17.40
2016,07,17,09,33,17.40
2016,07,17,09,34,17.40
2016,07,17,09,35,17.40
2016,07,17,09,36,17.50
2016,07,17,09,37,17.50
2016,07,17,09,38,17.50
2016,07,17,09,39,17.50
2016,07,17,09,40,17.60
2016,07,17,09,41,17.60
2016,07,17,09,42,17.70
2016,07,17,09,43,17.70
2016,07,17,09,44,17.80
2016,07,17,09,45,17.80
2016,07,17,09,46,17.80
2016,07,17,09,47,17.80
2016,07,17,09,48,17.80
2016,07,17,09,49,17.80
2016,07,17,09,50,17.80
2016,07,17,09,51,17.80
2016,07,17,09,52,17.80
2016,07,17,09,53,17.80
2016,07,17,09,54,17.90
2016,07,17,09,55,17.90
2016,07,17,09,56,17.90
2016,07,17,09,57,17.90
2016,07,17,09,58,18.00
2016,07,17,09,59,18.00
2016,07,17,10,00,18.10
2016,07,17,10,01,18.10
2016,07,17,10,02,18.20
2016,07,17,10,03,18.20
2016,07,17,10,04,18.30
2016,07,17,10,05,18.30
2016,07,17,10,06,18.30
2016,07,17,10,07,18.30
2016,07,17,10,08,18.30
2016,07,17,10,09,18.30
2016,07,17,10,10,18.40
2016,07,17,10,11,18.40
2016,07,17,10,12,18.50
2016,07,17,10,13,18.60
2016,07,17,10,14,18.70
2016,07,17,10,15,18.70
2016,07,17,10,16,18.70
2016,07,17,10,17,18.80
2016,07,17,10,18,18.80
2016,07,17,10,19,18.80
2016,07,17,10,20,18.90
2016,07,17,10,21,19.00
2016,07,17,10,22,19.00
2016,07,17,10,23,19.00
2016,07,17,10,24,19.00
2016,07,17,10,25,18.90
2016,07,17,10,26,18.90
2016,07,17,10,27,18.90
2016,07,17,10,28,18.90
2016,07,17,10,29,18.90
2016,07,17,10,30,19.00
2016,07,17,10,31,19.00
2016,07,17,10,32,19.00
2016,07,17,10,33,19.10
2016,07,17,10,34,19.10
2016,07,17,10,35,19.10
2016,07,17,10,36,19.10
2016,07,17,10,37,19.10
2016,07,17,10,38,19.20
2016,07,17,10,39,19.20
2016,07,17,10,40,19.20
2016,07,17,10,41,19.20
2016,07,17,10,42,19.20
2016,07,17,10,43,19.30
2016,07,17,10,44,19.30
2016,07,17,10,45,19.30
2016,07,17,10,46,19.30
2016,07,17,10,47,19.30
2016,07,17,10,48,19.30
2016,07,17,10,49,19.30
2016,07,17,10,50,19.30
2016,07,17,10,51,19.30
2016,07,17,10,52,19.20
2016,07,17,10,53,19.20
2016,07,17,10,54,19.10
2016,07,17,10,55,19.10
2016,07,17,10,56,19.00
2016,07,17,10,57,19.00
2016,07,17,10,58,19.00
2016,07,17,10,59,19.00
2016,07,17,11,00,19.00
2016,07,17,11,01,19.00
2016,07,17,11,02,19.00
2016,07,17,11,03,19.00
2016,07,17,11,04,19.10
2016,07,17,11,05,19.10
2016,07,17,11,06,19.10
2016,07,17,11,07,19.10
2016,07,17,11,08,19.10
2016,07,17,11,09,19.10
2016,07,17,11,10,19.10
2016,07,17,11,11,19.10
2016,07,17,11,12,19.10
2016,07,17,11,13,19.20
2016,07,17,11,14,19.20
2016,07,17,11,15,19.20
2016,07,17,11,16,19.30
2016,07,17,11,17,19.30
2016,07,17,11,18,19.30
2016,07,17,11,19,19.30
2016,07,17,11,20,19.30
2016,07,17,11,21,19.30
2016,07,17,11,22,19.40
2016,07,17,11,23,19.30
2016,07,17,11,24,19.30
2016,07,17,11,25,19.30
2016,07,17,11,26,19.30
2016,07,17,11,27,19.30
2016,07,17,11,28,19.30
2016,07,17,11,29,19.30
2016,07,17,11,30,19.30
2016,07,17,11,31,19.30
2016,07,17,11,32,19.30
2016,07,17,11,33,19.30
2016,07,17,11,34,19.40
2016,07,17,11,35,19.40
2016,07,17,11,36,19.50
2016,07,17,11,37,19.60
2016,07,17,11,38,19.60
2016,07,17,11,39,19.60
2016,07,17,11,40,19.70
2016,07,17,11,41,19.70
2016,07,17,11,42,19.70
2016,07,17,11,43,19.80
2016,07,17,11,44,19.80
2016,07,17,11,45,19.80
2016,07,17,11,46,19.80
2016,07,17,11,47,19.80
2016,07,17,11,48,19.80
2016,07,17,11,49,19.80
2016,07,17,11,50,19.80
2016,07,17,11,51,19.80
2016,07,17,11,52,19.90
2016,07,17,11,53,19.90
2016,07,17,11,54,19.90
2016,07,17,11,55,19.90
2016,07,17,11,56,19.90
2016,07,17,11,57,20.00
2016,07,17,11,58,20.00
2016,07,17,11,59,20.10
2016,07,17,12,00,20.10
2016,07,17,12,01,20.10
2016,07,17,12,02,20.10
2016,07,17,12,03,20.20
2016,07,17,12,04,20.20
2016,07,17,12,05,20.20
2016,07,17,12,06,20.30
2016,07,17,12,07,20.30
2016,07,17,12,08,20.30
2016,07,17,12,09,20.30
2016,07,17,12,10,20.30
2016,07,17,12,11,20.30
2016,07,17,12,12,20.20
2016,07,17,12,13,20.20
2016,07,17,12,14,20.20
2016,07,17,12,15,20.20
2016,07,17,12,16,20.20
2016,07,17,12,17,20.20
2016,07,17,12,18,20.20
2016,07,17,12,19,20.20
2016,07,17,12,20,20.20
2016,07,17,12,21,20.30
2016,07,17,12,22,20.30
2016,07,17,12,23,20.30
2016,07,17,12,24,20.40
2016,07,17,12,25,20.40
2016,07,17,12,26,20.40
2016,07,17,12,27,20.40
2016,07,17,12,28,20.40
2016,07,17,12,29,20.40
2016,07,17,12,30,20.40
2016,07,17,12,31,20.50
2016,07,17,12,32,20.50
2016,07,17,12,33,20.50
2016,07,17,12,34,20.50
2016,07,17,12,35,20.50
2016,07,17,12,36,20.50
2016,07,17,12,37,20.40
2016,07,17,12,38,20.40
2016,07,17,12,39,20.40
2016,07,17,12,40,20.40
2016,07,17,12,41,20.50
2016,07,17,12,42,20.50
2016,07,17,12,43,20.60
2016,07,17,12,44,20.60
2016,07,17,12,45,20.70
2016,07,17,12,46,20.70
2016,07,17,12,47,20.70
2016,07,17,12,48,20.70
2016,07,17,12,49,20.70
2016,07,17,12,50,20.70
2016,07,17,12,51,20.70
2016,07,17,12,52,20.70
2016,07,17,12,53,20.70
2016,07,17,12,54,20.80
2016,07,17,12,55,20.80
2016,07,17,12,56,20.80
2016,07,17,12,57,20.90
2016,07,17,12,58,20.90
2016,07,17,12,59,20.90
2016,07,17,13,00,20.90
2016,07,17,13,01,20.90
2016,07,17,13,02,20.90
2016,07,17,13,03,20.90
2016,07,17,13,04,21.00
2016,07,17,13,05,21.00
2016,07,17,13,06,21.00
2016,07,17,13,07,21.00
2016,07,17,13,08,21.00
2016,07,17,13,09,21.10
2016,07,17,13,10,21.10
2016,07,17,13,11,21.10
2016,07,17,13,12,21.10
2016,07,17,13,13,21.10
2016,07,17,13,14,21.10
2016,07,17,13,15,21.10
2016,07,17,13,16,21.10
2016,07,17,13,17,21.20
2016,07,17,13,18,21.20
2016,07,17,13,19,21.30
2016,07,17,13,20,21.30
2016,07,17,13,21,21.30
2016,07,17,13,22,21.40
2016,07,17,13,23,21.40
2016,07,17,13,24,21.40
2016,07,17,13,25,21.40
2016,07,17,13,26,21.40
2016,07,17,13,27,21.40
2016,07,17,13,28,21.40
2016,07,17,13,29,21.40
2016,07,17,13,30,21.40
2016,07,17,13,31,21.40
2016,07,17,13,32,21.40
2016,07,17,13,33,21.40
2016,07,17,13,34,21.40
2016,07,17,13,35,21.40
2016,07,17,13,36,21.40
2016,07,17,13,37,21.50
2016,07,17,13,38,21.50
2016,07,17,13,39,21.60
2016,07,17,13,40,21.60
2016,07,17,13,41,21.60
2016,07,17,13,42,21.70
2016,07,17,13,43,21.70
2016,07,17,13,44,21.70
2016,07,17,13,45,21.80
2016,07,17,13,46,21.80
2016,07,17,13,47,21.80
2016,07,17,13,48,21.80
2016,07,17,13,49,21.90
2016,07,17,13,50,21.90
2016,07,17,13,51,21.90
2016,07,17,13,52,21.90
2016,07,17,13,53,21.90
2016,07,17,13,54,21.90
2016,07,17,13,55,21.80
2016,07,17,13,56,21.80
2016,07,17,13,57,21.80
2016,07,17,13,58,21.80
2016,07,17,13,59,21.80
2016,07,17,14,00,21.80
2016,07,17,14,01,21.70
2016,07,17,14,02,21.70
2016,07,17,14,03,21.60
2016,07,17,14,04,21.60
2016,07,17,14,05,21.60
2016,07,17,14,06,21.60
2016,07,17,14,07,21.60
2016,07,17,14,08,21.60
2016,07,17,14,09,21.60
2016,07,17,14,10,21.70
2016,07,17,14,11,21.70
2016,07,17,14,12,21.80
2016,07,17,14,13,21.80
2016,07,17,14,14,21.90
2016,07,17,14,15,21.90
2016,07,17,14,16,22.00
2016,07,17,14,17,22.00
2016,07,17,14,18,22.00
2016,07,17,14,19,22.00
2016,07,17,14,20,21.90
2016,07,17,14,21,21.90
2016,07,17,14,22,21.90
2016,07,17,14,23,21.90
2016,07,17,14,24,21.90
2016,07,17,14,25,21.90
2016,07,17,14,26,21.90
2016,07,17,14,27,21.90
2016,07,17,14,28,21.90
2016,07,17,14,29,21.90
2016,07,17,14,30,22.00
2016,07,17,14,31,22.00
2016,07,17,14,32,22.10
2016,07,17,14,33,22.10
2016,07,17,14,34,22.20
2016,07,17,14,35,22.20
2016,07,17,14,36,22.20
2016,07,17,14,37,22.20
2016,07,17,14,38,22.30
2016,07,17,14,39,22.30
2016,07,17,14,40,22.30
2016,07,17,14,41,22.40
2016,07,17,14,42,22.40
2016,07,17,14,43,22.40
2016,07,17,14,44,22.40
2016,07,17,14,45,22.50
2016,07,17,14,46,22.50
2016,07,17,14,47,22.50
2016,07,17,14,48,22.50
2016,07,17,14,49,22.50
2016,07,17,14,50,22.50
2016,07,17,14,51,22.60
2016,07,17,14,52,22.60
2016,07,17,14,53,22.70
2016,07,17,14,54,22.70
2016,07,17,14,55,22.80
2016,07,17,14,56,22.80
2016,07,17,14,57,22.90
2016,07,17,14,58,23.00
2016,07,17,14,59,23.10
2016,07,17,15,00,23.10
2016,07,17,15,01,23.20
2016,07,17,15,02,23.30
2016,07,17,15,03,23.40
2016,07,17,15,04,23.40
2016,07,17,15,05,23.50
2016,07,17,15,06,23.70
2016,07,17,15,07,23.70
2016,07,17,15,08,23.80
2016,07,17,15,09,23.90
2016,07,17,15,10,23.90
2016,07,17,15,11,24.00
2016,07,17,15,12,24.00
2016,07,17,15,13,24.00
2016,07,17,15,14,24.00
2016,07,17,15,15,24.00
2016,07,17,15,16,24.00
2016,07,17,15,17,24.00
2016,07,17,15,18,24.00
2016,07,17,15,19,23.90
2016,07,17,15,20,23.90
2016,07,17,15,21,23.90
2016,07,17,15,22,23.80
2016,07,17,15,23,23.80
2016,07,17,15,24,23.80
2016,07,17,15,25,23.80
2016,07,17,15,26,23.80
2016,07,17,15,27,23.70
2016,07,17,15,28,23.70
2016,07,17,15,29,23.70
2016,07,17,15,30,23.80
2016,07,17,15,31,23.80
2016,07,17,15,32,23.70
2016,07,17,15,33,23.70
2016,07,17,15,34,23.60
2016,07,17,15,35,23.50
2016,07,17,15,36,23.40
2016,07,17,15,37,23.40
2016,07,17,15,38,23.30
2016,07,17,15,39,23.20
2016,07,17,15,40,23.10
2016,07,17,15,41,23.10
2016,07,17,15,42,23.00
2016,07,17,15,43,23.00
2016,07,17,15,44,23.00
2016,07,17,15,45,23.00
2016,07,17,15,46,23.10
2016,07,17,15,47,23.10
2016,07,17,15,48,23.10
2016,07,17,15,49,23.20
2016,07,17,15,50,23.20
2016,07,17,15,51,23.20
2016,07,17,15,52,23.20
2016,07,17,15,53,23.20
2016,07,17,15,54,23.10
2016,07,17,15,55,23.10
2016,07,17,15,56,23.10
2016,07,17,15,57,23.00
2016,07,17,15,58,23.00
2016,07,17,15,59,23.00
2016,07,17,16,00,23.00
2016,07,17,16,01,23.00
2016,07,17,16,02,23.00
2016,07,17,16,03,23.00
2016,07,17,16,04,23.10
2016,07,17,16,05,23.10
2016,07,17,16,06,23.10
2016,07,17,16,07,23.10
2016,07,17,16,08,23.10
2016,07,17,16,09,23.10
2016,07,17,16,10,23.10
2016,07,17,16,11,23.10
2016,07,17,16,12,23.10
2016,07,17,16,13,23.10
2016,07,17,16,14,23.20
2016,07,17,16,15,23.20
2016,07,17,16,16,23.20
2016,07,17,16,17,23.20
2016,07,17,16,18,23.30
2016,07,17,16,19,23.30
2016,07,17,16,20,23.30
2016,07,17,16,21,23.30
2016,07,17,16,22,23.30
2016,07,17,16,23,23.20
2016,07,17,16,24,23.20
2016,07,17,16,25,23.20
2016,07,17,16,26,23.20
2016,07,17,16,27,23.20
2016,07,17,16,28,23.20
2016,07,17,16,29,23.20
2016,07,17,16,30,23.30
2016,07,17,16,31,23.30
2016,07,17,16,32,23.30
2016,07,17,16,33,23.40
2016,07,17,16,34,23.50
2016,07,17,16,35,23.60
2016,07,17,16,36,23.60
2016,07,17,16,37,23.60
2016,07,17,16,38,23.60
2016,07,17,16,39,23.60
2016,07,17,16,40,23.70
2016,07,17,16,41,23.70
2016,07,17,16,42,23.70
2016,07,17,16,43,23.70
2016,07,17,16,44,23.80
2016,07,17,16,45,23.80
2016,07,17,16,46,23.80
2016,07,17,16,47,23.80
2016,07,17,16,48,23.80
2016,07,17,16,49,23.80
2016,07,17,16,50,23.80
2016,07,17,16,51,23.70
2016,07,17,16,52,23.70
2016,07,17,16,53,23.70
2016,07,17,16,54,23.70
2016,07,17,16,55,23.80
2016,07,17,16,56,23.80
2016,07,17,16,57,23.90
2016,07,17,16,58,24.00
2016,07,17,16,59,24.10
2016,07,17,17,00,24.10
2016,07,17,17,01,24.20
2016,07,17,17,02,24.10
2016,07,17,17,03,24.10
2016,07,17,17,04,24.10
2016,07,17,17,05,24.10
2016,07,17,17,06,24.20
2016,07,17,17,07,24.20
2016,07,17,17,08,24.20
2016,07,17,17,09,24.30
2016,07,17,17,10,24.30
2016,07,17,17,11,24.30
2016,07,17,17,12,24.30
2016,07,17,17,13,24.30
2016,07,17,17,14,24.20
2016,07,17,17,15,24.10
2016,07,17,17,16,24.00
2016,07,17,17,17,23.90
2016,07,17,17,18,23.90
2016,07,17,17,19,23.80